Theta_e
341 333 327 327 331 334 336 336 336 336 339 341 341 340 339 338 338 340 341 343 344 345 344 344 344 346 347 346 344 345 345 345 345 344 343 343 344 344 343 344 344 343 343 343 341 338 338 340 343 345 345 344 342 341 341 344 346 345 345 345 345 344 343 343 343 342 343 346 346 346 345 346 347 346 346 347 347 345 344 345 346 342 337 337 339
348 343 338 333 331 330 332 334 335 335 337 341 342 341 341 340 339 341 342 342 345 346 345 345 344 345 347 346 343 342 342 343 345 345 345 344 344 344 343 344 345 344 343 343 343 341 339 339 341 345 348 348 345 342 341 342 345 346 345 346 348 348 345 344 344 342 340 341 342 339 338 339 340 339 339 340 342 343 343 343 341 338 337 338 339
349 348 347 346 344 341 336 333 332 333 333 335 338 339 341 343 343 344 344 344 345 347 347 346 345 345 347 347 345 342 340 340 343 345 346 345 343 343 344 343 343 344 345 345 345 343 342 341 341 344 347 348 347 345 342 341 345 348 347 346 348 350 349 348 348 346 342 338 336 334 334 335 335 334 333 335 338 341 339 335 334 336 339 341 342
352 350 350 350 349 349 348 342 336 336 336 334 334 335 339 346 348 347 348 348 347 348 348 347 346 345 345 346 346 343 339 338 340 344 346 347 346 344 344 343 342 343 345 347 346 345 343 343 343 344 345 345 344 345 342 339 339 345 348 347 347 348 350 350 350 350 347 343 339 337 336 336 335 334 332 333 335 336 334 332 331 336 341 343 344
352 352 352 353 349 348 350 350 346 345 345 342 338 335 340 348 352 350 349 350 349 348 349 348 348 346 344 344 344 343 340 338 337 340 344 348 349 347 345 343 343 342 342 344 346 346 344 343 342 343 343 343 341 342 342 340 337 337 341 344 346 347 348 349 350 349 349 348 345 343 342 341 338 336 336 334 333 333 332 330 332 336 342 346 347
353 353 353 355 353 348 347 350 352 354 354 352 348 344 343 349 352 352 351 350 349 349 350 349 349 347 345 343 343 342 341 340 337 338 341 345 347 347 346 344 343 342 340 340 342 344 343 342 342 342 342 341 340 340 341 341 340 337 336 337 341 346 349 349 350 349 349 349 348 347 346 344 341 337 336 335 334 332 331 329 330 335 342 347 349
354 354 354 353 353 351 347 346 351 356 357 356 354 351 347 347 348 350 351 350 349 349 348 348 348 348 346 345 344 343 342 340 338 336 338 340 341 341 343 343 342 341 340 340 340 341 341 340 341 341 341 341 340 340 339 339 339 338 337 336 339 343 346 348 350 350 349 349 349 349 347 345 343 338 334 334 333 332 331 331 329 330 336 345 350
351 352 353 352 351 351 349 347 350 356 357 357 357 356 352 348 346 347 348 349 349 348 347 346 346 347 348 347 346 345 344 343 340 336 335 335 336 336 337 338 339 339 339 339 340 340 340 339 340 340 341 341 340 339 339 339 339 339 339 339 339 339 341 344 347 348 349 349 349 349 347 344 341 335 332 331 330 330 331 331 330 327 332 340 345
350 350 351 352 350 350 350 350 352 355 355 356 357 357 355 353 350 348 348 348 348 348 348 346 346 346 347 347 347 347 346 345 342 340 336 334 333 334 334 335 336 336 337 338 339 340 340 339 339 339 339 338 338 338 339 342 344 344 343 344 343 342 340 340 340 342 343 345 345 345 343 340 335 331 330 329 328 328 329 329 330 331 336 342 342
349 349 349 350 350 350 350 351 353 354 354 355 355 355 355 355 352 350 349 348 347 347 348 348 347 346 347 347 348 348 347 345 344 342 341 338 336 334 332 332 333 333 334 335 336 337 338 338 338 338 339 338 338 337 338 342 345 345 345 344 345 346 344 343 342 340 339 339 338 338 337 335 333 332 331 331 330 330 330 331 331 332 338 343 342
350 349 349 349 349 349 350 351 353 354 354 354 354 354 354 354 352 351 349 348 347 346 346 348 348 347 346 346 346 347 346 346 345 343 342 342 341 340 337 333 331 331 331 332 332 333 335 336 337 338 339 339 338 339 341 343 343 343 343 343 344 345 346 345 345 343 343 341 338 337 336 333 332 332 332 331 331 331 331 332 333 333 334 339 339
351 351 350 350 349 349 349 350 350 351 353 354 354 353 353 352 352 351 350 348 348 346 345 346 348 348 348 347 345 345 345 345 345 345 343 342 343 343 342 340 337 333 331 330 330 330 331 333 335 337 338 337 338 341 343 345 345 344 344 344 344 344 345 346 345 345 345 344 343 341 339 337 334 333 332 331 331 332 332 331 332 333 334 336 336
347 348 349 350 350 350 350 350 350 349 350 352 352 351 351 352 353 353 352 350 349 347 346 345 346 347 348 348 347 345 344 344 344 345 345 345 344 344 344 344 343 341 338 335 333 331 331 331 332 333 335 336 337 339 341 344 345 346 346 346 345 345 345 345 345 346 345 345 345 344 341 340 338 332 330 331 332 333 332 332 332 333 335 335 335
343 343 344 345 346 348 349 350 351 350 351 351 351 352 351 352 352 353 353 351 350 349 348 346 345 344 344 345 346 346 345 345 344 344 345 345 346 345 346 346 346 346 345 343 341 339 338 336 335 333 332 334 336 338 340 341 342 344 347 347 346 345 345 345 345 346 346 346 346 343 339 337 335 330 328 331 334 334 334 334 335 336 337 336 335
341 341 341 340 340 342 344 347 348 350 350 350 351 351 352 352 352 352 352 351 350 350 349 348 347 345 343 344 344 344 344 346 346 345 344 345 346 347 347 347 348 348 348 347 347 345 345 343 342 341 338 336 335 335 336 338 339 341 342 343 342 341 340 340 341 342 343 344 344 343 339 336 333 330 329 331 332 333 335 337 340 339 338 338 337
336 336 336 336 336 337 339 341 343 344 346 348 350 350 350 351 351 351 351 351 351 350 350 349 349 348 347 346 345 344 343 346 349 349 347 346 347 348 348 348 348 349 349 349 348 348 348 346 346 345 345 344 342 340 337 337 338 341 340 339 338 337 335 335 336 337 338 338 339 339 338 336 335 334 333 333 334 335 337 340 340 339 340 342 341
326 326 328 332 335 336 336 337 338 338 339 342 344 346 347 347 348 350 350 351 351 352 351 350 350 350 349 349 348 346 344 346 349 351 351 350 348 348 349 349 350 350 350 350 350 350 349 349 348 348 347 347 348 347 344 342 341 342 342 341 340 340 338 336 336 337 338 338 338 338 338 338 338 338 338 338 338 338 340 341 338 337 342 346 344
319 319 322 326 331 335 336 335 335 336 335 335 337 337 339 341 343 346 347 348 350 351 352 352 352 352 350 349 349 348 347 347 348 350 351 352 352 351 351 351 350 351 350 350 350 350 350 350 350 349 349 349 349 349 348 346 344 343 342 342 341 340 339 339 339 340 339 340 340 339 338 338 338 338 339 339 339 340 342 342 338 337 341 343 341
317 317 318 320 325 330 332 331 332 334 334 334 333 332 333 336 338 340 341 344 346 348 350 351 352 353 352 351 351 350 349 348 348 348 349 349 351 350 351 351 350 351 351 351 351 351 350 350 350 349 350 350 349 349 349 348 347 346 345 343 341 342 341 341 342 341 341 340 340 340 339 339 339 339 340 340 340 341 342 342 341 340 339 335 335
317 317 317 318 319 321 323 323 326 331 334 333 331 331 333 335 336 337 337 338 340 342 345 346 348 349 351 352 353 353 352 351 350 350 350 350 351 351 351 351 352 352 352 352 352 352 352 352 352 351 351 350 350 350 350 349 348 348 348 346 346 347 347 346 345 345 345 344 343 342 342 342 342 343 342 343 344 343 343 343 342 342 341 337 336
317 316 316 316 316 317 318 319 323 328 331 329 328 331 334 334 334 335 335 335 337 338 340 341 343 344 345 347 350 352 353 353 352 352 352 353 353 353 353 352 352 352 353 352 352 352 352 352 352 352 351 351 351 351 351 350 350 349 349 349 349 350 351 350 350 351 350 350 349 347 346 345 345 345 345 345 347 347 347 347 345 344 344 343 341
318 317 316 316 316 316 317 319 322 326 327 325 325 330 333 333 332 331 332 336 338 338 339 340 341 341 342 343 345 347 349 351 352 353 353 354 353 353 352 352 352 352 352 351 352 352 352 352 352 352 352 352 352 352 352 352 352 351 351 351 351 352 352 353 353 354 354 354 353 352 350 348 348 347 347 347 348 350 350 350 349 349 348 347 346
318 318 318 317 315 315 316 319 320 321 324 324 323 325 328 328 328 328 331 336 337 334 333 333 332 332 334 336 338 341 344 346 348 349 351 352 354 353 353 352 352 352 352 351 351 351 351 351 351 352 353 353 353 353 353 353 353 352 353 353 353 354 354 355 355 355 356 356 356 355 354 353 351 350 350 350 351 352 352 352 352 352 351 351 350
324 322 321 320 316 314 315 319 319 318 322 323 321 321 323 322 321 323 327 332 332 327 324 322 321 322 325 327 330 332 336 341 345 347 348 350 351 351 351 351 352 353 353 354 353 352 352 352 351 352 352 353 353 353 353 353 353 353 352 353 354 354 355 354 355 355 356 356 356 356 356 356 355 355 354 354 354 354 355 354 353 354 354 353 353
327 326 324 323 320 317 317 320 320 318 319 322 322 321 321 320 319 319 321 322 322 320 318 318 319 320 321 323 324 326 328 332 337 341 344 347 350 351 351 351 351 352 354 355 356 355 354 353 352 352 352 352 353 353 352 353 353 353 352 353 354 355 354 355 354 354 355 354 354 354 354 355 356 356 356 356 356 356 356 356 356 355 355 355 355
322 326 327 326 324 321 319 319 319 317 318 323 326 325 323 321 320 319 318 316 315 315 316 317 318 319 319 320 321 323 324 326 328 331 334 339 345 348 349 350 351 351 353 354 354 355 355 355 354 354 353 353 352 352 352 352 352 352 353 353 354 354 354 355 354 354 354 354 353 353 353 353 354 354 355 356 356 355 356 356 357 356 356 356 356
317 320 324 325 324 323 322 320 318 316 317 320 323 324 324 322 319 317 316 315 315 316 316 317 318 318 318 318 319 320 322 324 326 327 328 331 335 338 342 347 350 351 352 353 353 354 355 355 355 355 355 355 354 353 353 353 353 353 353 353 354 354 355 354 354 354 354 353 353 353 352 351 352 353 354 354 355 355 355 355 356 355 355 356 356
318 318 321 323 323 324 324 323 321 320 319 318 319 319 319 318 316 315 315 316 317 316 316 316 317 316 317 318 319 318 320 324 326 326 326 327 329 330 333 337 340 344 346 349 351 353 353 354 354 355 355 354 354 354 354 354 353 353 354 354 354 354 354 354 354 354 354 353 352 351 351 351 351 352 353 354 354 354 354 353 354 354 354 355 356
320 321 322 323 323 324 325 324 323 323 322 321 320 319 318 317 316 316 316 317 317 316 314 314 314 314 316 321 323 322 320 322 326 327 328 329 329 328 328 329 331 333 336 339 343 345 347 348 350 352 354 355 354 354 354 354 354 353 353 354 354 354 355 354 354 354 353 352 349 348 349 351 352 352 353 354 354 354 353 353 352 353 354 356 356
321 322 323 324 324 324 324 324 324 323 323 323 322 320 319 319 318 317 316 317 316 315 314 313 313 314 318 323 326 327 326 324 324 325 327 328 328 328 328 328 328 328 329 330 333 335 337 339 340 343 346 349 351 352 353 353 354 353 353 353 353 354 354 354 353 353 351 351 350 348 347 349 351 352 352 353 353 354 353 353 353 354 355 356 357
321 322 323 324 324 325 324 324 324 323 323 323 322 321 321 320 319 318 317 316 315 315 315 314 313 316 323 327 327 327 328 327 325 323 323 323 324 325 326 328 328 328 327 327 329 330 331 332 333 335 337 339 342 344 346 348 349 349 349 349 350 351 353 353 353 352 351 350 350 349 346 345 345 346 347 349 351 352 353 353 354 355 356 357 356
320 321 322 323 324 324 324 323 323 323 323 322 322 322 321 319 318 317 317 317 317 316 315 314 313 316 324 328 327 326 326 326 325 324 322 323 323 323 324 326 327 327 327 327 327 327 328 328 329 331 333 335 337 339 341 343 344 344 344 344 344 345 347 349 351 351 350 349 349 348 346 345 343 342 342 344 345 347 350 353 354 355 356 356 355
320 321 321 322 322 322 322 322 322 322 322 322 321 321 320 319 318 318 318 318 317 316 315 314 314 315 320 324 325 325 326 327 327 326 325 324 324 323 323 323 324 324 325 325 325 326 326 326 326 328 330 333 337 340 342 343 344 345 345 345 345 344 344 345 346 347 347 348 347 346 345 344 343 343 343 343 343 344 348 351 354 354 354 355 354
319 320 320 320 321 321 321 321 322 321 321 321 320 320 319 319 318 318 318 317 316 315 314 314 313 314 318 321 324 325 326 327 328 328 327 325 323 322 321 321 321 322 322 323 323 324 325 325 325 326 327 330 336 342 344 343 344 346 346 347 348 348 348 348 347 347 346 346 345 344 344 344 346 348 349 350 350 351 352 354 354 354 354 354 354
318 319 319 319 320 320 320 320 320 320 320 320 320 319 319 318 318 318 317 316 314 314 314 314 314 315 317 321 323 324 325 326 327 327 327 325 323 321 320 320 320 320 321 321 322 323 324 325 325 327 327 328 333 340 344 344 344 345 346 347 347 348 349 350 350 351 350 349 347 345 344 346 350 353 355 357 356 356 356 357 356 355 354 354 354
317 317 318 319 319 319 319 320 320 319 319 319 319 319 318 318 317 316 315 314 314 314 315 315 315 315 317 319 321 322 323 324 325 325 325 325 324 323 322 321 321 320 320 321 321 321 323 324 325 326 327 328 330 334 340 343 344 344 344 345 346 347 348 350 350 351 352 353 351 350 350 351 353 355 358 359 358 358 358 357 357 356 355 354 355
315 315 316 317 317 318 318 318 318 318 317 317 317 316 316 315 315 315 314 314 314 315 316 316 316 316 316 317 318 319 320 321 321 322 323 323 324 323 322 321 321 320 320 320 320 321 321 322 323 324 325 326 327 329 332 336 340 343 344 345 345 346 347 348 348 348 350 352 353 353 353 354 354 356 357 358 357 358 357 357 357 356 355 355 355
312 313 313 314 314 315 315 315 315 315 315 314 314 314 314 314 314 314 313 313 314 315 316 316 316 316 316 316 316 318 318 318 318 318 319 319 320 320 320 319 319 319 319 318 318 319 319 320 322 322 323 325 326 327 327 329 332 334 338 340 342 343 345 346 346 346 347 350 351 351 352 352 353 354 355 356 356 356 357 356 356 356 355 354 354
310 311 311 311 311 312 312 312 312 312 312 312 312 312 313 313 313 313 313 314 314 315 316 316 316 315 315 315 315 316 316 316 317 316 316 317 317 317 318 317 317 317 317 316 316 317 318 318 320 321 322 323 324 325 325 326 326 327 328 330 332 334 337 341 343 344 345 347 349 348 348 350 351 352 352 353 354 355 356 356 355 355 355 354 353
306 307 308 308 309 308 309 309 309 309 310 310 310 311 311 311 312 313 313 313 314 314 314 314 314 314 314 314 314 314 315 315 315 316 316 316 316 316 316 315 315 315 315 315 314 314 315 316 317 319 321 321 322 323 324 324 325 325 326 326 327 327 329 332 336 338 340 343 346 346 345 346 347 347 349 351 353 353 354 354 354 355 354 354 354
305 305 305 306 306 306 307 307 307 308 308 309 309 309 309 309 310 310 311 311 312 312 313 313 313 312 312 312 313 314 314 315 315 316 316 316 315 315 314 313 313 314 313 313 313 313 313 314 316 317 319 320 321 322 323 323 324 325 325 325 326 326 326 328 329 330 331 334 338 342 344 344 345 345 346 349 350 351 351 352 353 352 352 353 354
304 304 304 304 304 304 305 305 305 306 307 307 307 307 307 307 308 309 309 310 310 310 311 311 311 311 311 312 312 313 313 314 315 315 315 315 314 314 313 312 312 312 312 312 312 312 313 313 314 315 317 318 319 320 321 322 323 324 324 325 325 325 326 326 327 327 327 328 330 333 337 340 343 345 345 346 346 347 348 348 349 349 350 351 351
303 303 302 302 302 302 302 302 303 304 305 305 306 307 307 307 308 308 308 308 308 308 308 309 309 310 311 312 312 312 312 312 313 313 313 313 313 312 312 311 311 311 311 311 311 311 311 312 312 313 314 316 317 318 319 320 321 322 323 323 324 324 325 325 326 326 327 328 328 330 331 334 336 338 339 341 343 344 345 346 346 347 348 348 349
302 301 301 300 300 299 300 301 302 304 305 305 306 306 306 306 306 306 306 306 306 306 307 307 308 309 309 310 310 311 310 311 311 311 311 311 311 311 311 311 311 311 310 310 310 310 311 311 311 312 312 313 314 315 316 317 318 319 320 320 321 321 322 323 324 325 325 325 326 328 329 331 332 333 334 335 337 340 342 344 345 345 346 346 347
300 299 299 299 298 299 300 301 303 303 304 304 304 304 304 304 304 304 304 305 305 306 306 306 306 307 307 308 308 309 309 309 309 309 309 309 309 310 310 311 311 310 310 310 310 310 311 311 311 311 311 312 312 313 313 314 315 316 316 317 318 318 319 319 321 322 323 323 324 325 326 327 329 331 332 333 334 335 338 340 341 343 344 344 345
298 298 298 298 298 299 301 302 303 303 303 303 303 303 303 303 304 304 303 303 304 304 305 306 306 306 306 306 306 307 307 307 307 307 307 307 308 309 309 310 310 310 310 310 310 310 311 311 311 311 311 311 311 311 311 312 313 313 314 314 315 316 316 317 318 320 321 321 322 323 324 325 326 328 329 331 333 333 334 335 336 338 340 341 342
298 298 297 298 299 300 301 302 302 302 303 303 303 303 303 303 302 302 302 302 302 303 304 305 305 305 305 305 305 305 306 306 306 306 307 307 308 308 308 309 309 309 309 309 309 310 310 311 311 311 311 311 310 310 310 311 312 312 313 313 314 314 315 316 317 318 319 320 321 322 323 323 324 325 327 328 330 332 333 334 335 336 337 338 339
298 297 298 299 299 300 301 301 301 302 302 302 302 302 302 301 301 301 301 301 301 302 302 303 303 304 304 305 305 305 305 305 305 306 306 307 307 307 308 308 308 308 307 307 308 309 310 310 310 311 310 310 310 310 310 311 312 312 313 313 313 314 315 316 317 317 318 319 320 321 322 323 323 324 326 327 329 330 332 333 334 335 336 337 338
297 297 298 299 299 300 300 300 300 300 300 300 300 300 300 300 300 300 301 301 301 301 301 301 302 302 302 303 303 303 303 304 304 304 305 305 306 306 306 306 306 306 305 305 306 308 308 309 309 309 309 309 309 309 309 310 311 311 312 313 313 314 315 316 317 318 318 319 319 320 321 322 323 324 325 326 327 329 330 330 332 333 334 335 336
297 297 298 298 298 298 298 298 298 299 299 299 299 299 299 299 299 299 299 300 300 300 300 301 301 301 301 301 302 302 302 302 303 303 304 304 304 304 304 304 304 304 303 304 305 305 306 306 306 306 307 307 307 307 307 307 308 309 310 311 312 313 314 315 316 317 317 318 318 319 320 321 322 323 324 325 325 326 327 328 328 328 329 329 331
297 297 297 297 297 297 297 297 297 298 297 297 297 297 297 297 297 298 298 298 298 299 299 300 300 301 301 301 301 301 301 301 302 302 302 302 302 303 303 303 303 303 302 303 303 303 303 304 304 304 304 304 305 305 305 305 306 306 307 309 310 311 313 314 315 315 316 316 316 317 319 320 321 321 321 322 322 324 325 325 325 324 325 326 327
Wind_Speed
19 21 22 23 24 24 24 24 24 24 24 24 22 20 18 17 16 15 16 16 15 14 13 13 14 14 13 14 14 14 15 14 13 13 13 12 12 12 13 14 13 11 10 11 11 12 14 16 15 13 13 14 15 17 17 18 18 17 16 13 12 13 14 13 15 16 16 14 12 11 12 12 11 12 13 14 15 16 16 15 17 19 18 16 16
23 23 22 22 21 22 23 24 24 24 24 25 24 22 20 18 17 15 15 16 16 14 14 14 14 14 13 13 13 13 14 14 14 13 14 13 12 12 13 14 13 12 11 11 10 11 13 15 16 15 14 15 15 15 15 16 17 17 15 11 8 10 12 12 12 14 16 17 16 15 15 15 15 15 15 16 17 17 16 16 17 17 16 15 14
26 25 24 23 22 20 21 22 23 23 23 24 24 24 22 20 18 17 16 16 17 15 14 14 14 14 13 13 13 13 14 14 13 14 14 13 13 13 13 14 14 13 13 12 11 11 12 14 14 14 14 15 16 16 15 16 18 18 16 13 11 10 11 12 12 13 14 15 17 17 17 17 17 16 15 16 17 17 16 17 17 15 13 13 13
27 26 25 23 22 20 20 20 22 22 22 22 22 23 22 20 19 19 17 17 17 17 16 14 13 14 14 14 13 14 15 14 14 14 13 12 12 14 14 13 13 13 13 12 11 12 13 13 13 13 13 14 14 14 14 15 17 20 19 17 16 14 12 12 14 14 14 15 16 16 17 16 15 15 15 16 17 17 17 18 17 14 11 10 11
26 25 25 24 21 20 21 21 21 21 20 20 21 21 21 21 20 19 19 18 18 18 17 16 15 14 14 14 13 13 14 15 15 14 13 12 12 13 15 15 14 14 14 13 13 13 14 14 14 13 14 15 14 13 13 14 15 18 21 21 20 18 15 14 14 14 16 17 17 16 16 16 14 14 14 16 17 17 18 18 17 13 10 9 11
22 22 24 24 22 20 21 22 23 23 21 20 20 22 23 24 22 21 20 19 19 19 19 19 18 16 14 13 13 13 13 14 15 14 14 14 13 14 15 16 16 15 15 14 14 14 15 14 14 15 16 16 15 14 14 15 15 16 18 19 20 20 19 17 16 16 17 18 19 19 19 18 18 16 15 17 18 18 19 19 16 13 11 11 12
19 21 22 24 24 23 22 21 24 26 25 23 21 21 23 25 25 24 22 21 20 20 20 21 21 20 17 15 13 13 13 14 15 15 15 15 16 15 15 16 17 17 16 16 15 15 15 14 14 15 16 16 15 15 15 15 15 15 15 15 17 20 21 21 20 19 19 19 20 21 22 22 22 21 18 18 19 19 19 19 18 16 13 13 14
16 18 19 20 21 23 24 23 24 25 26 25 23 21 21 23 25 25 24 23 22 21 21 21 22 22 21 18 16 14 13 14 15 16 16 17 17 17 17 17 17 17 17 17 17 17 16 15 15 15 15 16 15 15 14 14 13 13 13 12 13 15 18 21 23 23 23 23 24 25 25 26 26 23 20 19 20 19 18 19 20 19 16 15 16
15 17 17 18 18 20 24 25 25 24 23 23 24 23 22 22 24 24 23 24 24 24 23 23 23 24 24 22 20 18 17 16 15 15 16 17 18 19 19 18 18 19 19 18 19 19 19 18 17 17 16 16 16 15 13 11 11 11 10 10 11 12 13 16 19 22 24 26 27 27 27 27 25 22 21 20 20 20 19 19 20 19 17 17 17
14 15 15 16 18 18 20 23 26 26 24 23 24 24 24 24 25 24 24 24 24 24 25 25 24 24 24 25 24 22 21 19 17 16 15 16 17 19 20 21 21 20 21 20 20 20 20 20 19 19 18 17 17 16 14 12 11 12 11 11 12 13 14 15 16 17 19 22 23 23 24 24 22 21 21 20 20 20 20 20 20 19 18 19 19
12 13 14 14 15 17 18 20 22 24 25 24 24 24 25 26 26 26 25 25 25 24 24 26 26 25 25 25 25 25 25 23 21 19 17 16 16 17 18 21 22 23 23 23 22 22 21 21 20 20 20 18 17 15 14 14 13 13 12 12 13 15 17 17 17 17 18 19 19 19 21 21 20 20 20 20 20 21 21 21 22 22 21 22 23
11 11 12 11 11 13 14 16 18 20 21 21 22 23 24 25 26 26 26 25 25 25 24 24 26 27 26 26 27 27 25 24 24 22 20 18 17 17 17 17 19 22 23 24 24 24 24 23 22 22 22 21 19 18 17 16 16 16 16 16 18 18 19 20 20 20 20 20 20 20 20 21 20 19 18 19 20 21 22 22 23 24 24 25 26
10 10 10 9 9 10 10 10 12 14 16 17 17 17 17 20 23 25 27 26 25 25 25 24 25 26 27 28 29 29 27 25 24 24 24 22 20 20 20 19 18 18 19 21 22 23 24 25 25 25 24 23 23 22 21 21 20 20 21 22 22 22 23 23 23 23 23 23 23 23 21 21 21 20 18 20 22 23 23 24 25 27 28 28 28
11 10 9 8 8 9 9 8 9 10 11 12 13 12 12 15 19 22 26 28 27 26 26 25 25 26 26 27 28 29 29 28 26 24 24 25 24 23 23 23 21 20 19 19 19 20 21 23 24 25 25 25 25 25 25 25 25 25 25 25 25 24 24 24 24 25 25 26 27 26 24 23 24 23 21 22 24 25 25 25 26 28 29 29 29
15 13 12 11 8 7 7 8 8 8 9 10 11 11 11 13 15 18 21 24 26 27 27 27 27 26 26 26 27 28 28 27 26 25 24 24 25 26 26 26 25 24 23 22 21 21 21 22 23 24 24 25 25 26 26 27 27 27 28 29 29 28 28 27 27 27 27 28 29 29 28 26 26 26 24 23 25 25 25 25 26 26 27 27 27
15 15 14 13 12 10 8 6 5 4 6 9 11 11 11 11 12 13 15 18 21 23 24 25 27 27 27 27 27 28 27 25 23 23 23 24 25 27 27 27 27 26 25 24 24 24 23 24 25 25 25 25 24 24 25 26 27 28 29 29 30 31 31 31 29 29 29 30 30 31 31 30 30 29 28 26 26 25 24 24 24 24 25 27 27
14 14 14 13 12 12 11 9 7 6 3 2 5 8 11 12 12 12 12 13 16 18 19 21 23 25 26 27 27 28 28 27 24 22 21 22 24 25 27 28 29 29 28 27 27 27 26 27 27 28 28 27 26 25 25 26 28 29 30 32 32 34 35 34 32 32 32 32 32 32 33 33 32 32 31 30 29 27 26 26 24 23 25 27 28
13 12 12 11 10 10 9 8 8 9 8 7 4 2 3 7 9 11 12 12 12 14 15 17 18 20 22 24 25 27 29 29 28 26 24 23 23 24 25 27 28 29 30 29 29 30 30 30 30 31 31 31 29 29 28 28 30 32 33 34 35 37 39 38 36 36 36 36 37 37 36 36 36 35 34 33 31 29 29 29 26 24 26 29 30
12 11 10 10 9 7 6 7 8 8 8 8 8 7 6 5 4 4 7 8 10 11 12 13 13 15 17 19 22 24 26 28 29 30 29 28 28 28 28 29 31 31 31 31 31 32 32 32 33 33 34 33 33 32 32 32 33 34 35 36 38 40 41 39 38 38 39 39 40 40 40 39 38 37 36 35 34 32 32 32 30 28 29 31 30
9 9 8 8 7 6 5 5 5 6 6 7 8 8 7 7 7 7 6 5 5 7 10 11 11 12 14 17 19 21 23 26 28 29 28 27 27 28 29 31 32 32 32 33 33 34 35 35 36 36 36 35 35 35 35 35 37 37 38 39 40 41 41 40 40 41 41 42 42 42 42 42 40 40 39 37 36 35 35 35 34 33 33 33 32
4 6 6 6 6 5 4 4 4 4 5 6 7 6 6 6 7 7 9 9 8 6 5 6 7 8 10 12 15 18 21 23 25 26 26 25 25 25 26 28 30 31 32 33 34 36 36 37 37 37 37 36 35 35 35 36 38 40 41 42 42 42 41 42 42 41 42 43 44 44 44 44 43 43 41 40 39 37 36 37 37 36 35 36 36
2 2 3 4 5 4 3 3 3 2 3 5 5 4 4 5 6 7 8 8 8 8 7 6 6 6 7 9 11 14 18 20 22 23 24 25 25 25 26 28 29 31 33 35 36 36 36 36 36 36 36 36 36 35 35 35 36 38 40 40 40 40 40 40 40 39 38 39 41 43 44 45 46 46 45 43 42 39 38 37 37 37 37 38 39
2 3 2 1 2 3 2 1 1 1 0 3 3 3 4 5 6 7 7 6 6 8 9 9 9 9 9 8 9 12 15 17 19 21 22 24 24 25 26 27 27 28 31 34 36 36 35 34 34 33 34 34 35 35 36 36 36 37 37 37 37 37 37 38 38 37 36 36 36 39 41 42 44 45 45 44 42 40 40 38 37 36 36 37 37
2 2 3 4 2 1 1 2 4 4 3 4 5 5 6 7 7 7 6 7 9 10 10 10 11 11 11 10 9 10 12 14 16 18 20 21 24 25 26 27 27 27 28 29 31 33 33 33 32 32 32 33 33 34 35 36 37 37 37 36 35 35 36 37 37 37 38 38 38 39 39 39 40 41 41 41 40 40 40 39 37 35 34 34 35
5 3 1 3 5 4 1 3 6 6 5 6 6 7 8 9 9 8 8 9 11 12 12 11 10 10 10 10 10 10 11 11 13 15 16 18 22 25 26 27 28 27 27 27 27 28 30 31 33 33 33 33 33 34 34 35 36 36 37 36 36 36 37 38 39 39 40 41 41 42 42 41 41 41 40 40 40 40 40 39 38 36 35 35 35
7 6 4 2 5 6 5 5 7 7 6 6 7 7 9 10 10 10 11 11 12 13 13 11 10 9 9 9 9 10 11 11 11 12 13 15 18 23 26 27 26 26 27 28 28 27 28 30 32 33 34 34 34 35 35 35 35 36 36 36 37 38 38 39 40 41 42 42 43 44 44 45 45 44 43 42 41 40 39 39 39 38 36 36 36
6 8 9 7 5 5 7 9 9 8 7 7 8 9 10 11 12 12 13 13 12 13 14 13 12 12 10 9 8 8 9 10 11 11 12 12 14 17 22 24 25 25 26 28 28 29 29 30 31 32 33 34 34 35 35 36 36 37 36 36 37 37 38 39 40 41 42 42 42 43 44 44 45 45 44 43 42 40 39 38 38 38 37 36 37
4 6 8 8 6 5 7 9 10 9 9 9 9 10 11 12 13 13 13 12 13 14 15 14 14 14 12 10 9 8 7 8 10 11 13 14 15 16 17 20 22 23 25 26 27 28 27 27 28 28 30 31 31 32 33 34 35 36 36 37 36 36 35 36 36 38 39 38 37 37 37 37 39 40 41 42 42 41 38 37 37 38 38 37 38
3 4 5 6 6 5 7 9 10 11 11 12 12 12 11 13 14 14 12 10 11 14 15 15 15 15 13 11 10 9 8 8 10 12 14 16 18 18 18 20 21 22 23 25 26 27 27 27 26 26 27 28 29 30 30 31 32 33 33 33 33 33 31 30 30 31 32 33 34 34 32 30 30 32 34 38 40 40 38 37 37 37 38 38 38
4 4 4 5 5 6 7 9 11 13 14 15 15 15 13 14 14 13 11 8 9 12 14 15 15 14 12 9 9 9 10 10 10 13 15 17 18 20 20 21 22 22 23 24 25 27 28 29 30 30 29 29 30 31 31 31 31 32 32 31 31 31 30 28 28 28 29 30 32 33 32 30 29 29 29 32 34 35 36 37 37 38 39 40 40
5 6 5 5 6 8 9 11 13 15 16 17 17 17 18 16 12 9 8 9 10 12 13 14 13 11 8 8 8 8 10 12 12 13 15 17 18 19 20 21 22 23 24 24 24 25 26 27 28 29 30 30 31 31 32 32 33 33 33 33 33 33 31 30 29 29 30 31 32 32 32 32 32 32 32 32 31 31 32 33 35 37 38 39 39
6 7 6 6 8 9 10 12 14 16 17 17 17 18 19 18 14 10 9 10 13 14 14 14 13 9 6 7 9 10 11 12 13 14 15 16 17 18 19 20 21 22 23 25 25 25 24 25 25 25 26 28 29 28 28 28 28 29 31 33 34 34 34 33 31 31 33 34 34 34 34 35 35 35 35 35 34 33 33 33 35 36 37 37 38
7 7 6 6 7 8 10 11 13 14 16 17 17 17 18 19 20 18 16 16 17 17 14 13 13 11 9 9 10 11 11 12 13 15 16 17 18 18 17 18 20 21 23 25 26 25 24 23 24 24 25 26 26 25 23 22 22 23 25 27 29 30 31 30 30 31 33 34 35 35 35 35 36 36 36 37 36 35 35 36 37 38 38 39 39
8 8 7 7 7 8 9 10 11 12 14 15 17 18 19 20 22 24 25 25 24 21 17 13 11 10 9 9 9 10 11 10 11 14 17 19 20 19 19 18 19 21 22 24 25 25 24 24 24 24 24 23 23 22 21 20 20 20 20 21 23 25 25 25 26 28 29 30 32 33 34 34 35 35 35 34 34 34 35 36 37 37 38 39 40
9 10 9 9 9 10 10 11 12 13 14 16 18 20 22 23 24 26 27 27 26 23 20 17 13 10 10 9 10 11 11 12 12 14 17 20 22 23 23 22 22 22 22 23 24 25 25 24 24 23 22 22 22 22 21 20 19 19 18 19 19 20 21 22 23 25 26 26 27 28 29 31 32 31 30 30 30 31 32 34 35 35 36 38 41
10 11 12 12 12 13 14 14 15 16 17 18 20 22 23 25 26 26 25 23 23 22 21 20 17 14 13 13 14 14 14 15 16 17 19 21 24 25 26 27 27 26 25 25 26 27 27 26 26 25 24 23 23 23 23 23 22 21 19 18 18 18 17 18 20 23 25 27 28 27 27 28 28 28 29 30 31 31 32 34 34 35 35 36 40
11 11 12 12 13 15 16 17 18 18 19 20 21 22 23 24 25 24 23 22 21 21 21 22 21 20 18 18 19 19 18 19 21 22 23 24 25 26 28 28 28 28 27 27 27 28 29 29 29 28 27 26 26 26 26 27 27 27 25 24 23 21 20 20 20 20 20 21 23 24 25 27 29 29 29 30 31 32 33 34 33 33 32 33 36
11 11 11 13 14 16 17 18 19 20 20 21 22 23 23 24 23 23 23 22 21 22 22 23 24 24 24 23 22 22 23 24 25 26 26 26 26 26 27 28 28 29 29 29 29 29 30 30 30 29 29 28 28 28 29 29 30 31 32 33 33 31 29 28 27 25 21 19 21 24 26 27 28 28 30 32 32 32 31 32 32 31 30 30 32
11 12 14 15 16 17 17 18 18 18 18 19 20 21 21 22 21 21 21 22 23 23 24 25 25 26 26 25 24 25 26 27 28 28 28 27 26 26 27 28 29 30 31 31 32 31 31 30 30 30 29 29 29 29 30 30 31 31 32 34 36 36 36 36 36 35 30 25 24 26 27 25 25 26 28 32 33 31 30 30 30 30 29 29 30
10 11 13 14 14 14 14 14 14 14 14 16 17 18 19 19 18 19 20 22 24 24 25 26 27 27 26 25 25 26 27 27 27 27 27 27 27 28 29 30 31 32 33 33 33 32 32 32 32 31 31 30 29 29 30 30 31 32 32 32 33 34 35 37 39 40 39 34 30 29 26 24 23 23 24 26 29 30 31 32 32 31 31 32 32
11 11 12 13 13 13 13 12 12 12 13 15 16 16 16 15 16 17 20 22 24 25 26 27 28 27 26 24 24 24 25 26 26 26 26 27 28 29 30 31 33 33 33 33 32 32 32 33 33 33 33 32 31 30 30 30 31 31 32 33 33 33 33 34 35 37 39 39 38 38 37 34 30 26 22 22 23 25 28 30 31 31 32 32 31
11 12 13 14 14 13 13 12 12 13 13 14 15 14 14 15 16 17 19 21 23 24 26 28 28 27 25 23 23 24 25 25 25 25 26 28 29 30 32 33 33 33 33 32 32 33 33 34 34 34 34 34 33 32 32 31 31 31 32 33 34 34 34 34 34 35 35 35 36 39 42 42 39 36 34 31 29 28 27 26 27 27 27 28 28
12 13 15 16 16 16 15 13 12 11 11 12 12 13 15 16 18 19 21 22 23 24 25 26 27 26 25 24 24 25 26 27 27 27 28 28 30 32 33 33 32 32 32 32 33 34 34 35 35 35 35 35 34 34 33 33 32 32 32 32 33 34 34 35 35 36 36 34 33 33 36 39 41 42 43 43 42 40 38 35 33 32 31 31 31
16 17 18 18 18 17 14 11 9 9 11 12 13 15 17 19 20 21 22 22 22 23 23 24 25 26 27 27 27 27 27 28 29 30 31 32 32 33 33 33 32 31 32 33 34 34 35 35 36 36 36 35 35 34 34 33 33 32 32 32 32 32 33 34 35 36 36 36 35 33 33 34 36 38 41 44 45 46 46 45 43 41 39 38 37
17 18 18 18 17 14 9 6 7 10 13 14 16 17 19 20 20 21 21 21 21 22 23 24 25 26 27 28 28 29 29 29 31 32 33 34 34 34 33 33 33 32 33 34 34 35 35 36 36 36 36 35 34 34 34 33 32 32 32 32 31 31 31 32 34 35 36 36 36 36 35 34 34 34 36 39 42 44 46 48 48 48 47 45 43
17 17 16 15 13 10 7 6 9 11 13 15 17 18 19 20 21 21 22 22 23 23 23 24 25 25 26 27 28 29 30 30 32 32 32 32 33 33 34 34 34 33 34 34 35 35 35 34 35 35 35 34 33 33 33 32 31 30 30 30 30 30 31 31 32 33 33 34 35 36 36 36 35 34 34 35 36 38 40 42 44 47 49 49 48
17 16 14 12 9 7 7 8 10 12 13 15 16 18 19 20 22 22 23 23 24 24 24 24 24 25 25 26 27 28 29 29 30 30 30 30 31 32 33 33 34 34 34 35 35 35 34 33 33 33 32 32 31 31 31 30 29 28 28 28 28 28 29 29 31 31 31 32 34 35 35 36 36 35 34 34 35 35 36 36 36 38 40 43 46
17 15 12 9 7 7 9 11 12 13 14 16 17 18 19 20 21 22 22 23 23 24 25 26 26 25 26 26 26 27 28 29 29 29 29 30 31 31 32 33 34 34 35 35 35 34 33 32 31 30 29 29 29 29 29 29 28 27 27 27 27 27 27 28 29 30 30 31 32 33 34 35 36 36 35 34 34 35 35 35 34 33 33 35 38
15 12 10 8 8 9 11 13 14 16 17 19 20 21 22 22 22 21 21 22 22 23 24 25 26 27 28 28 28 28 29 29 29 29 29 30 30 31 32 33 33 34 34 34 32 31 30 29 29 28 28 27 28 28 28 27 27 27 27 26 26 25 25 26 27 28 29 31 31 31 32 34 35 35 35 35 34 34 34 34 33 32 32 32 33
12 11 9 10 11 13 14 15 16 17 19 20 21 22 23 24 24 24 24 24 24 24 24 25 26 27 28 28 28 28 28 29 29 29 29 30 31 32 32 33 33 33 32 31 29 28 27 27 27 27 27 27 28 28 28 27 27 27 27 27 26 26 25 25 25 26 27 29 30 30 31 33 34 34 35 34 33 33 33 33 32 31 30 30 30
11 11 12 13 14 15 16 16 16 17 18 19 20 21 21 22 23 23 24 25 25 25 25 25 26 26 26 26 26 27 28 29 29 30 31 31 31 32 32 32 32 31 31 29 28 27 26 27 27 27 27 27 28 29 29 28 28 28 28 28 27 27 25 25 25 25 25 26 27 29 30 31 32 32 32 32 31 31 31 31 30 30 30 30 30
Wind_Direction
216 217 217 218 218 217 215 214 215 216 217 218 218 216 214 214 212 209 210 211 211 214 218 219 219 219 219 218 216 218 221 220 220 225 227 226 228 229 228 232 239 240 237 235 228 227 229 231 231 228 228 231 230 233 241 244 247 248 249 253 260 265 265 262 259 256 250 250 253 254 259 264 264 270 280 284 287 294 299 304 311 315 317 324 332
215 216 217 219 223 224 222 220 219 220 219 218 220 220 219 219 218 214 213 213 214 216 220 223 223 222 225 230 228 225 226 223 219 224 231 232 230 230 228 230 235 238 238 237 233 232 233 233 233 230 232 240 242 242 244 245 245 246 244 238 243 257 264 268 271 267 258 252 256 263 265 266 268 273 279 280 283 289 295 302 306 310 316 325 334
217 217 216 217 221 226 230 229 226 226 225 223 222 221 218 217 218 217 214 213 213 216 219 225 229 228 230 237 239 236 233 229 224 225 231 235 236 235 234 234 237 238 241 243 240 240 240 239 240 235 233 241 247 250 253 248 244 246 244 236 231 237 248 260 269 276 272 260 257 261 264 266 269 272 275 278 281 286 293 300 304 311 320 325 332
215 218 220 219 217 218 227 236 235 232 231 229 227 223 218 215 218 219 218 217 217 217 220 226 231 234 236 239 244 242 237 233 228 225 228 236 241 242 242 242 240 239 242 244 242 243 245 247 249 249 248 250 251 253 255 252 244 243 244 244 243 241 241 252 262 272 276 270 263 264 268 269 269 269 272 276 279 283 288 293 302 314 322 323 325
211 216 221 222 220 215 216 224 232 235 234 232 230 226 220 217 220 224 223 223 223 221 222 226 230 234 235 237 241 240 239 238 234 228 228 236 243 246 248 248 246 244 244 244 241 241 244 248 251 254 256 259 259 259 259 258 252 245 244 246 249 249 247 250 260 266 270 272 273 274 278 279 277 274 276 280 281 281 282 288 300 313 317 318 319
211 214 217 220 223 220 214 216 221 227 232 233 230 227 222 219 221 225 227 229 228 225 226 229 233 236 236 237 240 241 242 243 240 235 233 236 242 246 246 247 248 248 248 247 244 242 243 247 250 252 255 259 261 261 262 263 262 255 250 247 247 250 251 251 256 262 264 269 275 279 282 285 285 282 281 285 285 283 284 291 298 304 308 311 313
209 209 212 216 221 221 218 220 221 221 225 229 228 227 224 222 221 222 225 229 231 230 230 232 236 239 241 241 241 243 244 243 243 242 239 238 241 244 244 245 247 248 251 251 250 248 248 249 251 252 255 259 261 261 260 262 265 266 264 257 250 249 251 252 253 258 263 267 272 276 279 284 286 285 284 284 284 285 290 296 299 302 306 307 306
206 206 206 209 215 217 216 219 220 218 221 224 226 228 225 224 225 225 225 225 228 232 235 236 237 239 242 244 245 247 247 245 245 244 243 243 243 245 246 246 247 249 252 254 255 255 254 253 253 253 255 258 261 262 261 261 264 269 272 273 267 259 257 255 254 257 261 265 268 273 277 281 284 286 287 287 287 291 296 299 301 305 309 304 299
193 198 201 203 206 212 216 217 216 216 218 219 222 226 227 225 227 229 229 228 227 229 233 237 239 239 241 244 246 248 249 250 250 250 248 247 247 249 250 250 252 253 254 256 257 259 260 259 258 258 259 261 263 262 259 257 262 268 273 278 281 278 272 266 263 262 263 265 268 272 275 279 284 288 290 292 295 297 300 300 302 306 307 300 300
178 184 191 195 197 202 213 220 219 219 221 220 220 223 225 225 227 229 233 233 232 231 231 234 237 240 242 244 246 248 250 253 256 258 259 257 256 256 256 256 256 257 258 259 260 260 262 263 263 263 264 264 264 262 257 253 258 265 271 274 277 279 281 280 277 275 272 272 274 276 278 282 288 292 294 297 299 300 302 303 303 305 302 298 302
160 170 179 186 193 198 210 219 219 219 223 228 229 226 224 224 226 228 231 234 236 236 234 234 236 240 242 244 245 246 249 252 256 260 264 266 265 264 263 261 259 258 259 260 261 262 263 265 266 266 265 264 263 261 260 260 262 265 269 273 274 276 278 281 283 284 283 283 285 285 285 288 293 295 296 299 302 304 305 306 304 303 301 299 301
143 153 162 170 182 191 203 214 216 217 221 229 235 234 229 228 230 231 232 234 236 236 235 234 235 239 243 245 246 247 248 251 253 257 262 265 266 267 268 267 265 262 261 261 262 263 264 265 266 266 266 266 265 264 264 264 265 268 273 276 277 276 277 278 281 283 284 285 287 287 287 291 295 298 301 304 306 307 305 304 303 303 303 301 300
148 150 150 153 161 169 182 195 202 211 217 225 233 237 235 234 236 237 237 237 237 236 235 233 232 235 241 244 247 250 251 251 251 254 258 261 264 266 267 268 269 269 268 267 267 267 268 268 269 268 267 268 267 266 266 265 264 266 270 273 273 272 272 273 274 277 279 280 280 280 282 288 292 297 304 306 306 305 303 303 304 304 303 302 301
132 135 135 141 155 170 181 182 180 190 202 215 227 231 229 232 234 236 237 237 238 237 238 238 234 232 235 240 244 250 254 256 254 253 253 255 259 263 266 268 270 271 271 271 271 271 273 273 274 274 273 271 270 268 268 268 267 266 267 268 268 268 267 267 267 268 271 272 273 276 279 283 287 293 299 301 301 302 302 301 301 302 301 299 298
112 114 114 113 117 138 169 187 195 201 200 208 219 223 227 232 231 231 232 234 236 237 238 239 237 234 235 237 241 246 253 257 258 256 254 252 253 257 261 264 266 268 269 269 270 270 272 274 275 278 278 277 275 273 271 272 271 269 268 268 268 269 268 268 267 267 268 269 271 274 277 280 284 289 293 296 297 299 299 296 295 296 295 294 294
102 101 101 100 98 98 109 136 168 206 217 218 221 226 235 243 240 235 234 234 235 237 237 236 236 236 237 239 241 244 247 251 254 254 253 250 248 251 255 257 261 264 266 267 268 269 270 272 273 275 277 279 280 280 278 276 274 273 274 273 274 274 274 274 274 274 274 273 273 275 277 280 282 285 289 291 293 296 295 290 290 292 291 291 292
92 91 93 96 97 92 91 97 95 75 66 203 228 239 246 251 250 245 244 242 240 238 237 236 236 236 236 238 239 241 244 247 249 249 247 245 244 245 249 251 254 258 260 262 264 266 267 268 270 272 274 275 277 280 281 279 276 275 276 277 278 278 279 280 281 280 280 279 279 279 281 282 283 284 286 287 288 290 288 286 290 294 291 289 290
84 84 88 94 97 94 88 86 83 70 62 68 68 11 284 269 262 255 250 249 248 245 242 239 239 240 239 239 239 241 243 245 246 247 245 243 242 243 245 248 250 252 255 257 259 262 263 265 266 268 270 271 272 275 278 278 276 275 275 277 278 279 281 283 284 285 285 284 284 285 285 286 286 286 287 288 289 288 284 284 289 290 287 286 289
85 84 86 92 98 101 94 85 80 71 62 62 61 49 37 22 349 302 276 265 258 255 251 247 245 246 245 244 244 244 244 244 245 246 246 245 246 246 247 249 251 253 255 256 257 259 261 263 264 265 267 268 269 271 273 274 274 274 275 276 277 278 281 283 284 285 287 287 287 288 288 288 289 289 289 290 290 288 285 285 286 284 283 284 287
84 88 86 87 91 93 89 83 79 74 62 49 44 40 38 39 40 34 19 347 302 276 268 264 262 259 255 251 250 248 248 247 246 247 249 250 252 254 255 256 258 260 262 264 264 264 264 265 265 265 266 268 268 269 269 270 272 273 274 274 275 277 282 284 285 286 287 286 286 287 287 287 288 288 289 289 289 288 286 285 284 283 281 282 283
74 89 87 82 80 78 82 84 75 69 57 38 28 25 24 26 27 30 32 24 11 352 320 297 290 286 277 268 261 256 255 253 249 247 247 248 251 255 258 260 263 265 266 268 268 269 269 269 270 270 269 269 269 268 267 268 269 270 271 272 274 278 282 284 285 285 285 283 282 282 283 284 285 285 286 287 287 286 285 284 284 283 281 280 281
354 43 67 83 89 79 71 83 90 87 63 36 22 9 4 9 8 13 23 25 19 18 16 3 346 330 312 295 282 271 264 261 258 255 251 249 249 252 255 257 260 263 264 264 265 266 267 269 271 273 273 272 271 269 267 266 267 268 270 271 273 275 278 280 282 283 282 281 280 279 278 278 279 281 282 283 283 283 283 282 283 283 282 280 281
308 322 336 17 108 101 72 5 264 205 315 354 348 326 329 345 353 0 12 14 7 5 5 359 354 350 341 327 309 291 277 269 266 264 261 257 254 253 254 255 257 259 260 262 262 263 264 266 268 271 273 274 274 272 270 269 269 269 271 273 274 273 274 276 278 281 282 283 281 279 278 277 278 279 280 282 283 283 282 282 282 283 282 282 282
212 280 302 306 304 62 106 259 272 275 281 297 301 298 308 323 333 340 348 349 346 348 351 352 351 348 346 342 333 317 300 284 274 271 269 265 260 258 258 259 259 259 260 261 262 263 263 263 264 265 268 270 272 274 273 272 272 272 273 275 276 276 276 278 280 283 284 285 284 283 281 280 279 279 280 282 285 285 285 284 283 282 282 283 283
186 187 248 298 300 310 295 228 251 269 276 278 286 292 299 307 312 320 331 337 339 342 347 352 353 350 347 345 341 335 326 311 294 284 279 272 265 262 261 261 261 261 261 262 265 266 265 264 263 263 264 265 267 269 271 271 272 272 274 276 277 278 279 281 283 284 285 286 286 285 283 282 280 279 279 281 283 284 284 285 284 283 283 285 286
206 204 204 243 284 300 299 265 255 263 265 264 276 288 295 302 308 315 324 330 333 337 341 347 349 348 346 343 338 336 334 330 321 311 298 283 272 268 268 267 265 265 265 266 267 268 268 267 266 265 265 265 266 267 269 271 271 271 272 274 276 278 279 281 282 283 284 285 285 286 285 284 282 280 278 278 278 279 281 283 284 283 283 285 286
218 218 219 228 255 295 306 297 289 287 278 267 269 278 286 296 305 312 318 323 330 336 340 343 344 344 343 339 334 331 329 326 325 323 316 303 290 283 280 277 273 271 272 271 271 271 271 271 271 270 269 269 269 270 271 272 273 274 274 275 276 278 279 281 282 282 283 285 287 288 288 286 282 279 277 276 275 275 278 282 283 282 283 285 286
214 218 223 233 247 280 299 300 302 305 301 293 288 288 293 301 307 312 318 326 334 340 343 343 340 338 338 337 331 323 319 319 319 318 315 312 308 303 299 294 287 283 281 278 276 276 275 274 273 273 273 274 274 274 274 275 276 277 277 277 277 278 280 283 284 285 286 288 290 293 293 289 282 278 277 276 274 274 278 281 281 281 282 284 283
219 219 226 238 252 269 282 290 296 300 302 304 305 305 311 317 317 314 317 329 339 341 341 341 337 331 332 336 333 324 317 316 317 314 310 308 307 307 307 307 305 302 298 294 288 284 282 280 278 277 276 276 276 276 276 277 278 278 279 280 280 281 283 285 285 285 287 292 297 301 303 299 291 285 280 278 276 276 278 280 280 281 281 281 280
225 232 237 241 252 264 272 280 287 291 295 301 306 310 318 326 324 315 312 323 334 334 334 337 336 331 327 328 329 327 322 318 313 309 307 303 301 302 303 306 307 306 306 306 302 299 296 293 290 289 287 284 282 281 280 280 280 280 280 281 281 282 283 284 283 284 286 291 298 302 304 302 300 297 291 285 282 281 281 281 280 281 281 280 279
231 237 248 253 258 268 276 278 281 286 291 298 304 308 313 317 317 310 307 316 325 327 329 331 332 328 319 317 318 317 317 317 313 308 306 303 299 298 299 302 304 304 304 305 306 308 309 307 302 299 297 294 291 290 289 288 288 287 285 283 282 281 282 282 282 284 286 287 290 292 294 294 295 296 295 292 288 285 284 282 281 280 280 280 279
234 235 245 257 264 272 277 278 279 282 287 293 299 303 307 310 309 304 302 311 322 326 326 325 323 314 294 296 304 302 304 312 313 310 307 305 300 296 294 296 300 302 303 305 306 307 310 313 313 311 307 304 302 300 299 299 299 298 295 292 289 286 284 283 283 284 285 285 286 286 286 286 286 287 288 289 287 285 283 282 282 281 281 280 279
233 233 236 247 257 261 265 269 272 277 283 290 295 298 302 308 311 310 308 310 315 320 319 317 315 306 286 285 300 306 308 313 313 310 308 305 300 295 292 293 299 302 303 304 306 307 308 308 310 313 314 313 310 307 304 303 305 306 305 303 301 298 296 293 290 286 284 284 284 282 281 280 281 282 283 284 285 285 284 284 285 284 283 281 278
228 232 237 245 252 255 260 268 274 278 283 287 290 294 298 304 307 308 310 312 313 314 313 311 309 303 294 293 307 316 314 309 304 301 301 301 299 296 293 294 298 301 301 301 302 303 304 303 303 306 309 311 310 307 304 302 303 304 306 306 306 306 303 299 295 292 289 285 282 279 277 275 275 276 280 282 284 284 284 284 283 282 279 278 277
227 230 233 241 247 252 259 269 275 280 282 282 285 290 295 299 301 303 307 311 312 312 313 314 311 306 302 303 309 310 306 301 296 293 292 293 294 294 295 298 300 301 302 301 299 297 297 297 297 297 298 299 299 299 300 300 299 297 298 299 300 300 300 297 294 290 287 283 281 278 275 273 273 275 279 280 280 280 280 279 278 275 273 274 277
229 233 234 236 243 248 255 261 266 270 274 276 280 285 289 293 297 299 302 305 307 308 310 312 312 309 306 304 302 298 293 291 290 289 291 293 295 297 300 304 307 307 306 304 300 296 293 292 291 290 290 289 287 286 288 291 292 292 292 292 292 295 298 296 293 289 282 278 278 277 274 273 274 277 279 280 279 278 276 275 274 273 271 272 274
232 241 244 244 248 251 254 258 263 268 272 276 279 283 286 288 291 294 297 300 301 302 303 305 307 309 309 307 304 300 296 293 290 289 290 290 292 296 300 304 308 310 309 307 303 299 296 294 293 292 291 289 286 283 282 282 283 284 285 286 287 290 290 290 294 299 294 284 282 283 281 279 277 275 275 279 281 279 277 277 276 275 272 269 269
244 251 255 258 261 264 266 269 272 274 277 279 281 283 284 285 286 288 290 292 292 294 297 299 303 307 309 310 309 308 307 305 301 297 295 292 291 293 297 303 308 312 312 312 309 305 300 298 298 297 296 294 291 288 285 282 280 280 280 282 284 287 288 287 290 296 298 294 292 292 290 287 284 281 278 279 280 280 280 281 280 278 275 270 267
261 258 260 263 266 269 272 276 280 282 283 283 283 283 284 285 285 285 285 284 285 289 293 296 299 304 306 307 309 311 313 313 311 310 309 307 306 304 304 306 308 310 312 314 314 311 307 304 302 300 299 298 297 293 289 287 286 283 281 281 282 284 285 287 289 292 295 293 289 286 284 280 277 277 277 278 280 283 284 284 283 281 279 275 272
284 272 268 269 271 273 275 277 279 281 282 282 283 285 286 286 286 284 282 282 283 286 290 294 298 301 303 304 307 310 312 312 313 315 315 314 313 312 310 309 308 309 312 315 316 316 314 311 307 304 302 302 301 297 292 290 290 288 286 285 284 282 281 282 284 287 290 289 285 284 286 283 279 275 270 267 269 274 277 277 278 277 276 276 277
303 296 290 288 286 283 282 280 277 276 277 279 283 288 293 292 288 284 282 283 284 286 289 292 295 297 299 301 303 304 305 307 310 312 313 314 313 312 311 310 310 312 314 317 318 319 318 315 312 309 307 305 304 301 296 294 292 290 289 288 287 285 283 281 280 281 283 282 281 282 285 287 289 288 281 268 262 263 265 266 268 270 272 274 276
309 309 308 307 303 297 293 290 287 283 281 283 288 294 299 298 295 291 289 289 290 290 291 292 294 296 298 300 299 299 300 303 307 309 310 311 311 310 310 310 311 313 316 318 320 320 319 317 315 313 311 310 308 305 302 298 295 293 291 290 290 290 288 287 286 284 283 281 278 275 276 278 280 281 281 279 276 274 272 270 270 271 275 277 278
314 313 312 311 310 309 306 302 299 297 295 295 299 302 300 294 291 290 290 290 290 291 293 294 295 297 299 301 301 301 300 300 302 304 306 307 308 309 310 310 311 314 317 319 320 320 319 317 315 313 313 312 311 309 306 303 300 297 295 293 293 293 293 292 290 288 288 287 284 278 273 271 272 274 277 279 281 281 281 281 279 278 279 282 284
313 311 309 307 308 309 308 305 303 304 303 299 296 295 292 290 288 289 290 291 292 294 295 295 295 296 297 298 299 301 301 300 299 299 301 303 304 305 306 307 310 313 315 316 316 317 316 315 315 314 314 313 312 310 308 306 304 302 299 297 296 295 295 295 293 291 292 293 292 288 283 277 273 272 273 275 278 280 281 282 282 282 282 282 282
309 308 308 307 308 310 311 306 296 293 292 290 289 290 292 294 295 296 297 297 297 297 297 296 296 295 295 295 296 298 300 300 298 297 298 299 300 301 302 305 308 310 311 311 312 313 313 313 314 314 314 313 312 310 309 308 307 306 303 302 300 299 298 298 296 294 295 295 294 293 291 288 284 280 276 275 275 276 277 278 279 280 282 282 282
314 313 310 307 306 309 312 305 295 291 290 290 291 291 293 294 295 297 298 298 296 294 294 296 296 294 293 293 294 296 297 297 296 296 296 297 298 299 301 303 305 306 306 307 308 309 310 311 312 312 313 312 311 310 310 310 311 309 307 306 305 304 303 301 299 297 297 297 295 294 293 292 291 289 286 283 281 279 277 276 275 276 277 278 279
320 318 314 309 309 313 309 300 295 293 292 291 290 291 292 292 292 293 295 296 293 289 289 292 295 294 293 293 293 293 295 296 297 298 298 298 298 299 300 302 303 304 304 305 307 307 308 310 310 309 310 310 310 310 310 311 311 310 308 308 308 306 305 304 302 300 298 297 295 295 294 294 293 293 291 290 288 286 283 281 278 276 276 276 276
321 320 319 317 314 305 295 290 290 291 291 291 291 292 293 294 294 294 296 296 293 289 288 289 290 290 292 294 294 293 294 295 297 298 299 299 299 299 300 301 302 303 304 306 307 308 308 309 308 307 307 308 309 310 310 310 309 308 308 308 307 306 305 303 301 301 300 297 296 295 295 294 293 293 292 291 289 287 286 285 282 280 278 276 276
320 320 321 316 305 293 286 285 288 290 291 291 292 292 292 293 293 294 295 294 293 291 290 289 289 288 290 293 294 294 293 294 296 299 300 300 300 300 300 300 301 303 306 308 309 309 309 309 307 305 305 308 309 308 308 308 307 305 305 304 304 303 302 300 298 298 297 296 296 295 294 293 292 292 291 289 287 285 285 285 284 282 280 278 277
322 317 311 302 294 291 290 290 289 289 290 291 292 293 293 293 291 291 291 290 291 291 291 290 290 290 292 293 294 295 296 297 298 300 300 300 299 299 298 299 301 304 307 308 309 310 311 309 306 306 307 309 309 309 309 309 308 306 304 303 301 300 298 296 294 294 294 294 294 293 293 292 292 292 290 289 287 286 285 284 284 284 283 281 280
333 322 310 299 292 290 291 292 292 292 292 293 294 295 296 296 295 294 292 290 287 287 288 290 291 292 292 292 293 295 296 297 298 300 300 299 299 297 297 298 300 303 306 307 309 311 311 308 305 306 308 308 309 310 312 312 311 309 306 303 301 299 296 293 292 293 293 294 294 293 293 293 293 292 291 289 287 286 285 284 284 283 283 282 282